RBG987 HECA-LTFJ

Flight info

Callsign RBG987
Flight time N/A
Altitude 24000
Route CVO A16 DEGDI/N0441F370 DCT SENTO/N0444F360 Q777 IMPIP DCT AZMEY DCT RASDA M855 TOMBI UM855 EKSEN UL610 ETAMP
Aircraft A320/M-SDE3FGHIRWY/LB1

Departure

Time 2026-04-29 22:17
Airport Cairo International Airport (HECA)

Arrival

Time N/A
Airport Istanbul Sabiha Gökçen International Airport (LTFJ)
Time Latitude Longitude Altitude Speed Heading
2026-04-29 21:45 30.12950 31.40442 390 ft 0 kts 311°
2026-04-29 22:05 30.12944 31.40450 389 ft 4 kts 316°
2026-04-29 22:06 30.12922 31.40469 389 ft 4 kts 332°
2026-04-29 22:06 30.12903 31.40485 389 ft 3 kts 288°
2026-04-29 22:06 30.12897 31.40512 389 ft 4 kts 282°
2026-04-29 22:06 30.12891 31.40542 389 ft 4 kts 291°
2026-04-29 22:07 30.12879 31.40562 390 ft 2 kts 343°
2026-04-29 22:07 30.12877 31.40563 390 ft 0 kts 344°
2026-04-29 22:09 30.12879 31.40562 390 ft 2 kts 344°
2026-04-29 22:10 30.12894 31.40557 390 ft 1 kts 349°
2026-04-29 22:10 30.12900 31.40572 390 ft 3 kts 63°
2026-04-29 22:10 30.12909 31.40595 390 ft 5 kts 67°
2026-04-29 22:10 30.12930 31.40668 390 ft 11 kts 72°
2026-04-29 22:11 30.12994 31.40690 390 ft 11 kts 346°
2026-04-29 22:11 30.13069 31.40662 390 ft 11 kts 342°
2026-04-29 22:11 30.13143 31.40625 390 ft 13 kts 316°
2026-04-29 22:11 30.13196 31.40514 389 ft 18 kts 295°
2026-04-29 22:12 30.13236 31.40383 389 ft 17 kts 288°
2026-04-29 22:12 30.13267 31.40260 389 ft 15 kts 283°
2026-04-29 22:12 30.13283 31.40150 389 ft 13 kts 276°
2026-04-29 22:12 30.13254 31.40064 389 ft 11 kts 227°
2026-04-29 22:13 30.13204 31.40001 389 ft 10 kts 228°
2026-04-29 22:13 30.13148 31.39927 389 ft 13 kts 229°
2026-04-29 22:13 30.13090 31.39851 389 ft 12 kts 229°
2026-04-29 22:13 30.13038 31.39781 389 ft 11 kts 229°
2026-04-29 22:14 30.12978 31.39698 389 ft 18 kts 230°
2026-04-29 22:14 30.12876 31.39558 389 ft 27 kts 229°
2026-04-29 22:14 30.12748 31.39388 389 ft 28 kts 229°
2026-04-29 22:14 30.12616 31.39207 389 ft 30 kts 230°
2026-04-29 22:15 30.12481 31.39020 389 ft 31 kts 230°
2026-04-29 22:15 30.12387 31.38877 389 ft 15 kts 280°
2026-04-29 22:15 30.12464 31.38852 389 ft 13 kts 17°
2026-04-29 22:15 30.12554 31.38887 390 ft 14 kts 18°
2026-04-29 22:16 30.12599 31.38862 390 ft 2 kts 27°
2026-04-29 22:16 30.12618 31.38894 390 ft 17 kts 50°
2026-04-29 22:16 30.12866 31.39224 393 ft 88 kts 49°
2026-04-29 22:16 30.13394 31.39936 390 ft 142 kts 50°
2026-04-29 22:17 30.14121 31.40891 637 ft 166 kts 47°
2026-04-29 22:17 30.14890 31.41899 1229 ft 174 kts 48°
2026-04-29 22:17 30.15688 31.42953 1964 ft 173 kts 47°
2026-04-29 22:17 30.16673 31.43693 2672 ft 172 kts
2026-04-29 22:18 30.17837 31.43424 3361 ft 173 kts 339°
2026-04-29 22:18 30.18997 31.42918 3711 ft 188 kts 340°
2026-04-29 22:18 30.20306 31.42377 3978 ft 211 kts 340°
2026-04-29 22:18 30.21771 31.41783 4326 ft 235 kts 340°
2026-04-29 22:19 30.23397 31.41131 4763 ft 259 kts 340°
2026-04-29 22:19 30.25128 31.40442 5550 ft 267 kts 340°
2026-04-29 22:19 30.26876 31.39753 6417 ft 271 kts 339°
2026-04-29 22:19 30.28669 31.39049 7290 ft 274 kts 338°
2026-04-29 22:20 30.30483 31.38334 8169 ft 277 kts 339°
2026-04-29 22:20 30.32314 31.37613 9016 ft 280 kts 339°
2026-04-29 22:20 30.34164 31.36883 9838 ft 283 kts 339°
2026-04-29 22:20 30.36050 31.36140 10421 ft 295 kts 339°
2026-04-29 22:21 30.38067 31.35341 10668 ft 317 kts 339°
2026-04-29 22:21 30.40193 31.34503 11223 ft 327 kts 339°
2026-04-29 22:21 30.42332 31.33662 11941 ft 331 kts 339°
2026-04-29 22:21 30.43906 31.33045 12493 ft 333 kts 339°